Location: Düngen
(52.0952°N, 10.0219°E)
Time: 16:04:40
(UTC+00:00)

Cosmos 2227 Rocket - Pass Details

Date: 11 March 2026
Orbit: 836 x 845 km, 71.0° (Epoch: 14 April)

Event Time Altitude Azimuth Distance (km) Brightness Sun altitude
Rises 22:47:27 0° 326° (NNW) 3,416 6.1 -40.5°
Reaches altitude 10° 22:49:58 10° 322° (NW) 2,478 5.2 -40.6°
Enters shadow 22:51:29 19° 316° (NW) 1,937 4.5 -40.7°
